カタログに戻る

STARLINK-31626

運用中通信VLEO
NORAD 59392·PAYLOAD·🇺🇸 United States

打ち上げ Apr 2, 2024 から Vandenberg Space Force Base

Loading…

次のパス (今後24時間)

TLE

最新Source: CelesTrak SupGP

元期: Sep 15, 2026, 01:53 UTC

1 59392C 24062U   26258.07895833  .00018456  00000+0  54531-3 0  2580
2 59392  53.1568  93.1836 0001301  84.4460  38.2694 15.34380023    11

AllMySatでSTARLINK-31626をリアルタイム追跡

Download on the App Store